Temp
-12 -13 -12 -10 -9 -9 -8 -7 -7 -6 -7 -7 -8 -7 -7 -7 -7 -6 -5 -5 -6 -7 -7 -8 -8 -8 -7 -6 -5 -5 -5 -5 -5 -5 -5 -5 -5 -5 -5 -5 -5 -5 -4 -5
-12 -13 -12 -11 -11 -9 -9 -9 -8 -7 -7 -8 -8 -7 -7 -6 -6 -6 -5 -5 -6 -7 -7 -7 -8 -8 -8 -6 -6 -6 -5 -5 -5 -5 -5 -5 -6 -5 -5 -5 -5 -5 -5 -5
-12 -13 -12 -11 -11 -10 -11 -10 -9 -7 -7 -8 -8 -7 -6 -6 -6 -6 -6 -6 -7 -8 -8 -7 -7 -7 -8 -7 -6 -6 -6 -6 -6 -6 -6 -6 -6 -6 -6 -6 -5 -5 -6 -6
-14 -13 -13 -12 -11 -11 -11 -10 -9 -7 -7 -8 -8 -7 -7 -6 -7 -7 -7 -8 -8 -8 -8 -7 -7 -8 -8 -8 -8 -7 -7 -6 -6 -7 -7 -7 -7 -7 -6 -6 -6 -6 -6 -6
-15 -14 -14 -13 -12 -11 -11 -10 -9 -7 -8 -8 -8 -7 -7 -7 -7 -7 -7 -7 -7 -7 -7 -8 -7 -8 -8 -8 -8 -8 -7 -8 -7 -8 -8 -7 -7 -7 -7 -7 -7 -7 -7 -7
-15 -14 -14 -13 -12 -12 -11 -11 -10 -8 -8 -9 -8 -8 -8 -7 -8 -8 -8 -8 -7 -7 -7 -7 -7 -7 -8 -7 -7 -8 -8 -8 -8 -8 -8 -8 -7 -8 -7 -7 -7 -7 -7 -7
-14 -14 -13 -13 -12 -12 -12 -10 -10 -9 -8 -9 -9 -8 -8 -8 -8 -8 -8 -7 -7 -7 -7 -7 -7 -8 -8 -7 -8 -8 -8 -8 -8 -8 -8 -8 -8 -8 -8 -7 -7 -7 -7 -7
-14 -13 -13 -12 -12 -12 -11 -10 -10 -9 -8 -9 -9 -9 -9 -8 -8 -8 -8 -8 -7 -7 -7 -7 -8 -8 -8 -8 -8 -8 -8 -8 -8 -8 -8 -8 -8 -8 -8 -7 -7 -7 -7 -7
-13 -13 -13 -12 -12 -11 -11 -10 -9 -9 -8 -8 -8 -9 -9 -8 -8 -8 -8 -8 -7 -7 -7 -7 -7 -8 -8 -8 -8 -8 -8 -8 -8 -8 -8 -8 -8 -8 -8 -8 -7 -7 -7 -8
-13 -13 -13 -12 -12 -11 -10 -11 -9 -9 -8 -8 -9 -9 -9 -9 -8 -9 -8 -8 -8 -8 -7 -7 -7 -7 -7 -7 -7 -7 -8 -8 -8 -8 -8 -8 -8 -8 -8 -8 -8 -8 -8 -8
-13 -13 -13 -12 -12 -11 -11 -11 -10 -9 -8 -7 -9 -9 -9 -9 -9 -9 -9 -9 -9 -9 -8 -8 -8 -8 -6 -6 -6 -6 -7 -7 -7 -7 -7 -7 -8 -8 -7 -8 -7 -8 -8 -8
-13 -13 -13 -12 -12 -11 -11 -10 -10 -9 -8 -7 -8 -9 -9 -9 -9 -9 -10 -9 -9 -9 -10 -9 -9 -9 -7 -7 -7 -7 -6 -6 -6 -7 -7 -7 -7 -7 -7 -7 -7 -7 -7 -7
-13 -12 -12 -12 -12 -12 -11 -11 -11 -10 -9 -7 -8 -9 -9 -9 -9 -10 -10 -9 -9 -9 -10 -9 -9 -8 -8 -8 -8 -7 -6 -6 -6 -6 -6 -6 -6 -6 -6 -6 -6 -7 -6 -6
-14 -12 -12 -11 -12 -12 -11 -12 -11 -11 -10 -9 -7 -9 -10 -10 -9 -10 -10 -9 -8 -9 -8 -9 -9 -9 -8 -7 -7 -7 -7 -7 -6 -6 -6 -6 -6 -6 -6 -6 -6 -6 -5 -6
-15 -15 -13 -12 -11 -11 -12 -13 -12 -10 -11 -10 -9 -9 -10 -10 -9 -9 -10 -10 -8 -8 -8 -8 -8 -8 -7 -7 -7 -6 -6 -6 -6 -6 -6 -6 -6 -6 -6 -6 -6 -6 -6 -5
-13 -14 -14 -14 -13 -12 -11 -11 -11 -12 -10 -11 -10 -11 -11 -11 -10 -9 -9 -9 -10 -8 -7 -7 -7 -7 -7 -7 -6 -6 -6 -6 -6 -6 -6 -6 -6 -6 -6 -6 -6 -5 -6 -6
-15 -15 -13 -13 -13 -12 -11 -12 -12 -12 -11 -12 -11 -11 -10 -11 -11 -10 -9 -9 -8 -8 -8 -7 -7 -7 -7 -8 -7 -6 -6 -7 -7 -7 -7 -7 -6 -6 -6 -6 -6 -6 -6 -6
-15 -15 -14 -13 -13 -14 -13 -12 -12 -12 -12 -13 -12 -13 -12 -11 -11 -11 -10 -9 -8 -8 -9 -9 -8 -8 -8 -8 -8 -8 -7 -7 -7 -7 -7 -7 -7 -7 -6 -6 -6 -6 -6 -7
-16 -15 -15 -15 -15 -15 -14 -15 -13 -12 -12 -12 -12 -12 -12 -12 -11 -11 -11 -11 -10 -9 -8 -8 -7 -8 -8 -8 -8 -9 -8 -8 -8 -8 -7 -7 -7 -7 -7 -7 -7 -7 -7 -7
-17 -17 -16 -16 -16 -17 -16 -16 -16 -13 -11 -11 -12 -12 -11 -11 -12 -13 -13 -12 -11 -10 -9 -9 -9 -9 -9 -9 -9 -9 -9 -9 -9 -8 -8 -8 -8 -7 -7 -7 -7 -7 -7 -7
-18 -18 -17 -18 -17 -17 -17 -17 -17 -17 -16 -15 -12 -11 -11 -11 -11 -11 -11 -12 -13 -11 -11 -10 -10 -10 -10 -9 -9 -9 -9 -9 -9 -8 -8 -8 -8 -8 -8 -8 -7 -8 -8 -8
-19 -19 -18 -18 -18 -19 -19 -18 -17 -17 -17 -16 -15 -15 -14 -14 -13 -12 -11 -11 -11 -11 -11 -11 -10 -10 -9 -9 -9 -9 -9 -9 -9 -9 -10 -10 -9 -9 -8 -8 -7 -8 -8 -8
-19 -20 -20 -19 -19 -19 -19 -19 -18 -17 -17 -17 -16 -16 -16 -16 -15 -14 -12 -11 -10 -10 -11 -11 -11 -10 -10 -10 -9 -9 -9 -9 -9 -9 -9 -9 -9 -9 -9 -8 -8 -8 -8 -9
-20 -20 -20 -20 -20 -19 -19 -19 -19 -18 -18 -17 -16 -16 -16 -16 -17 -17 -15 -14 -13 -12 -12 -11 -11 -11 -11 -10 -10 -9 -9 -9 -9 -9 -9 -10 -9 -8 -10 -8 -8 -9 -9 -9
-21 -20 -21 -20 -20 -20 -20 -20 -19 -19 -19 -19 -17 -17 -17 -16 -16 -17 -17 -17 -18 -16 -14 -12 -11 -11 -11 -10 -10 -9 -9 -9 -10 -10 -10 -10 -10 -10 -10 -10 -10 -10 -10 -11
-22 -21 -21 -21 -21 -21 -20 -20 -20 -20 -19 -19 -19 -19 -19 -18 -17 -17 -17 -17 -17 -17 -17 -16 -15 -13 -12 -11 -11 -10 -10 -10 -10 -9 -10 -11 -10 -11 -11 -11 -11 -10 -10 -10
-23 -22 -22 -21 -21 -21 -21 -21 -20 -20 -20 -20 -20 -19 -18 -19 -19 -18 -18 -18 -17 -17 -16 -16 -16 -15 -15 -15 -14 -13 -13 -13 -13 -12 -12 -11 -11 -11 -11 -11 -11 -11 -12 -11
Height
5676 5690 5700 5715 5725 5734 5737 5748 5754 5773 5780 5788 5799 5804 5809 5812 5816 5821 5827 5834 5840 5849 5856 5860 5863 5867 5868 5872 5877 5883 5888 5892 5898 5900 5904 5908 5912 5916 5918 5920 5921 5923 5924 5925
5671 5689 5699 5708 5718 5724 5732 5743 5751 5768 5777 5785 5789 5795 5801 5807 5812 5816 5821 5828 5835 5844 5852 5856 5859 5863 5865 5868 5874 5880 5884 5888 5893 5897 5901 5906 5909 5912 5915 5917 5919 5920 5922 5923
5667 5681 5688 5699 5705 5713 5726 5733 5746 5762 5775 5777 5783 5789 5796 5802 5806 5811 5815 5822 5830 5839 5846 5852 5856 5860 5862 5867 5871 5875 5879 5883 5888 5893 5898 5902 5905 5909 5912 5915 5917 5918 5920 5922
5655 5670 5679 5687 5696 5708 5718 5726 5741 5753 5764 5771 5777 5784 5791 5796 5802 5807 5812 5820 5829 5836 5842 5846 5851 5856 5860 5864 5868 5871 5876 5880 5884 5890 5895 5899 5902 5906 5909 5912 5914 5915 5917 5919
5646 5659 5671 5679 5689 5700 5711 5719 5733 5745 5755 5761 5770 5779 5785 5788 5799 5806 5812 5818 5825 5831 5835 5842 5847 5852 5857 5861 5866 5870 5874 5878 5883 5888 5892 5896 5900 5903 5905 5909 5911 5913 5914 5916
5641 5651 5660 5673 5682 5694 5706 5716 5729 5738 5748 5757 5765 5769 5776 5782 5789 5798 5806 5813 5819 5824 5830 5836 5842 5847 5852 5858 5864 5868 5872 5876 5880 5883 5887 5892 5895 5898 5900 5904 5906 5908 5910 5912
5634 5645 5660 5669 5679 5689 5701 5711 5720 5730 5740 5748 5758 5763 5770 5775 5782 5790 5799 5806 5813 5819 5825 5830 5837 5842 5848 5853 5859 5864 5866 5870 5874 5878 5882 5885 5888 5891 5895 5899 5901 5904 5906 5907
5630 5641 5655 5666 5675 5687 5693 5702 5713 5722 5733 5742 5749 5757 5763 5771 5777 5784 5792 5800 5806 5813 5818 5824 5830 5836 5842 5847 5853 5857 5860 5865 5869 5873 5877 5881 5884 5887 5890 5893 5896 5898 5900 5902
5626 5635 5651 5661 5670 5681 5687 5697 5708 5719 5728 5736 5742 5749 5757 5765 5774 5780 5786 5792 5799 5805 5812 5818 5823 5829 5834 5840 5845 5850 5854 5859 5864 5868 5872 5875 5879 5880 5882 5885 5888 5892 5894 5896
5625 5637 5650 5660 5668 5676 5683 5690 5702 5714 5722 5728 5735 5744 5752 5760 5768 5775 5782 5787 5793 5798 5803 5808 5814 5821 5826 5831 5837 5842 5846 5851 5855 5859 5862 5865 5866 5869 5871 5875 5878 5883 5886 5887
5622 5636 5647 5656 5663 5673 5681 5689 5698 5709 5717 5721 5727 5736 5744 5752 5760 5768 5776 5781 5787 5792 5796 5801 5807 5812 5818 5825 5830 5834 5838 5842 5845 5849 5852 5855 5858 5861 5864 5866 5869 5872 5876 5877
5626 5636 5644 5654 5663 5671 5677 5683 5693 5699 5707 5713 5718 5726 5735 5742 5750 5758 5767 5773 5778 5784 5789 5794 5799 5804 5810 5816 5820 5825 5829 5832 5836 5841 5844 5847 5849 5851 5854 5857 5859 5862 5865 5866
5632 5638 5645 5652 5661 5665 5672 5678 5678 5689 5695 5700 5705 5715 5725 5732 5739 5748 5756 5764 5769 5775 5780 5786 5791 5796 5802 5808 5813 5817 5820 5824 5827 5831 5833 5836 5839 5841 5844 5848 5851 5853 5855 5856
5633 5638 5644 5648 5654 5659 5663 5667 5676 5678 5686 5692 5693 5699 5710 5720 5726 5735 5744 5751 5759 5765 5771 5777 5783 5789 5794 5798 5803 5808 5813 5816 5818 5821 5824 5826 5828 5830 5833 5836 5839 5841 5842 5844
5633 5634 5637 5642 5648 5651 5657 5661 5669 5669 5678 5688 5691 5693 5697 5707 5716 5724 5731 5739 5747 5753 5760 5768 5773 5778 5783 5788 5792 5797 5803 5807 5810 5812 5814 5816 5819 5821 5823 5826 5828 5830 5832 5833
5626 5630 5634 5638 5641 5644 5647 5655 5662 5668 5668 5674 5679 5686 5689 5694 5703 5711 5718 5725 5732 5741 5749 5756 5763 5770 5775 5779 5782 5786 5791 5795 5798 5800 5803 5806 5808 5810 5812 5814 5816 5818 5820 5822
5619 5623 5627 5633 5635 5637 5635 5635 5643 5655 5654 5656 5666 5677 5683 5688 5694 5698 5703 5710 5717 5724 5733 5742 5750 5757 5762 5767 5770 5774 5777 5782 5786 5789 5791 5794 5796 5798 5800 5802 5804 5805 5807 5808
5615 5616 5616 5619 5620 5618 5618 5619 5619 5630 5640 5647 5651 5659 5666 5675 5679 5686 5692 5698 5703 5708 5716 5725 5733 5740 5747 5753 5757 5760 5764 5768 5772 5775 5779 5782 5784 5785 5787 5788 5790 5791 5792 5794
5615 5613 5614 5614 5610 5605 5602 5602 5600 5604 5616 5624 5636 5643 5651 5657 5662 5668 5677 5682 5689 5697 5704 5711 5718 5725 5730 5736 5743 5747 5751 5755 5759 5762 5765 5767 5769 5771 5772 5774 5775 5777 5777 5778
5611 5608 5605 5603 5602 5599 5597 5592 5586 5587 5594 5607 5617 5624 5631 5638 5647 5656 5662 5670 5676 5683 5688 5695 5701 5709 5715 5722 5727 5732 5736 5741 5745 5749 5751 5752 5754 5756 5757 5758 5759 5760 5761 5762
5606 5603 5600 5596 5592 5589 5587 5586 5583 5581 5582 5587 5596 5606 5612 5619 5626 5635 5643 5650 5657 5663 5670 5677 5684 5692 5699 5707 5712 5717 5721 5725 5729 5732 5735 5737 5738 5738 5739 5740 5742 5743 5743 5744
5603 5599 5595 5593 5590 5586 5583 5581 5580 5580 5580 5582 5586 5590 5593 5595 5599 5606 5616 5627 5638 5647 5655 5661 5667 5675 5684 5690 5694 5699 5705 5709 5711 5713 5715 5718 5719 5718 5720 5721 5723 5724 5725 5725
5598 5596 5593 5589 5587 5584 5581 5578 5577 5577 5578 5579 5580 5581 5583 5582 5583 5587 5594 5602 5613 5625 5637 5643 5650 5660 5663 5671 5675 5682 5687 5690 5693 5695 5696 5696 5694 5698 5701 5700 5702 5703 5705 5707
5594 5591 5588 5586 5583 5580 5578 5577 5575 5574 5573 5573 5574 5574 5575 5575 5575 5577 5581 5586 5592 5600 5610 5623 5630 5636 5642 5649 5654 5661 5665 5668 5673 5675 5679 5679 5679 5679 5679 5680 5683 5686 5688 5689
5588 5586 5583 5580 5580 5578 5575 5573 5572 5571 5570 5570 5570 5570 5570 5572 5574 5574 5578 5580 5582 5585 5589 5597 5604 5613 5621 5624 5628 5638 5645 5649 5651 5656 5659 5664 5663 5661 5657 5660 5662 5663 5665 5667
5579 5578 5577 5574 5572 5571 5570 5569 5568 5566 5565 5565 5565 5566 5566 5566 5567 5568 5572 5575 5575 5578 5580 5583 5587 5591 5597 5605 5609 5618 5622 5628 5632 5635 5640 5646 5645 5643 5639 5644 5646 5646 5645 5646
5572 5569 5568 5566 5565 5564 5562 5562 5560 5559 5560 5560 5559 5559 5561 5561 5561 5562 5563 5564 5567 5570 5572 5574 5577 5581 5584 5588 5592 5598 5605 5609 5615 5618 5619 5624 5625 5625 5627 5629 5631 5632 5631 5630
Wind_Speed
74 67 65 68 62 59 62 56 51 37 39 39 35 33 34 34 39 26 27 36 38 32 35 30 22 21 23 27 25 26 26 25 25 27 27 26 23 19 18 14 14 14 13 10
72 66 62 66 62 62 61 58 50 39 46 39 35 33 36 34 32 22 24 37 40 32 27 31 24 22 20 26 28 27 26 27 27 26 25 24 21 20 18 17 17 17 16 12
65 69 62 60 67 65 59 58 50 42 47 43 36 37 38 37 27 20 23 34 30 28 23 24 26 21 20 20 27 28 28 30 28 26 25 24 23 21 19 18 17 17 16 15
60 62 67 63 62 63 61 59 54 50 45 41 37 37 41 37 26 20 21 28 28 27 31 28 24 24 21 22 22 23 27 28 27 26 25 25 23 23 21 17 17 15 13 14
58 58 63 60 66 59 61 61 53 53 48 44 43 40 44 39 30 28 27 31 31 26 30 33 30 25 23 23 22 21 25 28 25 23 21 24 22 22 21 19 17 16 15 16
57 61 66 53 62 58 59 60 55 52 51 44 48 46 45 47 39 38 36 33 30 25 27 26 29 30 28 28 22 22 21 26 27 26 24 24 27 26 26 24 22 21 19 18
59 61 66 51 62 60 57 59 57 55 55 50 53 49 44 45 46 43 41 35 28 23 26 26 26 25 27 22 20 19 27 28 33 33 31 30 32 30 28 27 27 23 20 20
63 62 62 55 60 61 62 61 58 57 55 54 59 54 47 45 44 43 39 32 28 27 23 27 27 28 27 28 27 27 25 33 34 33 33 35 32 32 31 31 29 26 24 24
63 64 64 51 59 62 56 61 60 57 57 61 63 61 54 49 43 44 42 35 29 29 26 25 30 32 33 32 32 34 33 33 33 36 37 38 37 42 38 38 33 32 32 30
57 63 62 69 59 68 56 63 65 60 59 65 63 64 57 51 45 44 41 39 34 31 29 29 32 38 40 40 41 42 43 43 44 44 46 49 52 50 45 45 38 39 39 38
55 63 58 67 64 67 55 56 62 63 62 64 66 64 63 57 50 45 44 43 42 38 36 34 32 32 33 33 35 38 44 47 48 49 49 50 45 44 47 46 44 48 48 48
53 63 65 66 61 68 68 46 64 69 73 70 69 68 65 62 55 51 52 51 47 46 45 42 42 39 34 31 28 27 30 32 39 47 52 52 53 54 55 53 53 53 53 53
48 48 56 59 68 61 66 72 62 73 79 76 75 70 69 67 61 59 61 53 51 50 48 46 43 40 36 35 34 33 31 31 33 38 43 48 53 55 56 56 56 54 53 52
40 52 55 55 58 73 71 63 46 73 80 81 80 75 73 73 69 65 65 60 59 57 56 49 44 44 42 41 39 37 35 34 33 34 36 40 44 46 45 44 44 43 42 43
20 32 55 63 61 66 70 70 62 61 77 80 81 81 76 76 75 70 66 66 61 58 57 54 49 49 43 37 40 42 42 40 38 35 36 38 40 42 42 42 42 43 44 45
23 28 32 42 60 62 69 70 74 67 66 85 88 81 78 79 77 75 74 70 68 63 59 58 54 52 44 41 49 52 49 46 44 39 39 39 40 41 41 42 43 45 45 46
9 16 31 41 46 61 72 72 69 67 70 78 76 79 74 81 78 79 78 77 75 71 68 64 60 58 53 44 51 56 55 50 47 46 44 44 45 45 45 46 47 48 49 49
3 11 20 28 36 46 61 75 78 78 79 66 75 78 72 74 68 80 80 78 77 75 73 69 66 62 54 50 53 50 50 50 51 53 52 52 52 52 51 51 52 53 54 54
12 8 11 21 25 26 30 39 64 78 82 77 81 74 72 75 73 73 70 76 79 79 81 74 72 70 62 58 55 53 51 51 51 52 53 54 54 54 55 55 57 57 57 58
14 16 18 11 7 9 18 19 21 60 79 85 81 79 77 82 74 81 81 75 65 81 92 85 77 72 67 65 62 57 53 50 50 51 53 57 58 58 57 58 59 60 62 63
16 18 17 21 20 14 11 12 14 17 38 62 80 92 94 95 97 89 80 83 82 76 74 82 80 75 69 69 66 62 59 57 62 65 65 64 65 67 67 67 68 67 64 64
16 18 21 18 17 18 17 13 9 8 13 21 32 44 55 66 79 95 98 93 86 79 80 79 83 85 82 76 70 66 68 70 66 62 61 61 64 68 70 71 70 69 70 70
18 17 17 20 18 15 15 18 14 15 18 14 14 21 25 25 41 54 72 88 93 88 83 75 74 75 78 76 79 83 78 68 63 63 63 65 69 68 65 68 69 72 73 71
18 19 17 15 17 21 17 11 17 20 19 19 17 13 14 16 19 22 36 49 61 71 78 92 90 90 92 91 89 81 75 74 72 70 66 66 71 70 72 70 69 72 71 75
18 17 19 19 16 15 18 21 21 16 17 22 25 22 19 16 19 16 15 23 29 33 56 71 81 94 99 97 93 86 85 82 79 75 72 61 58 56 59 64 71 69 68 68
23 20 19 20 20 20 16 16 15 17 22 18 19 22 24 26 25 29 33 29 24 30 29 31 39 49 64 76 86 85 81 81 82 80 67 66 68 71 68 68 73 71 71 69
23 23 21 22 21 19 20 17 18 18 15 16 21 21 17 16 24 29 32 35 36 37 39 38 34 38 42 41 49 54 49 46 51 59 68 64 69 73 77 80 83 76 78 75
Wind_Direction
201 198 202 205 206 207 213 212 214 199 185 179 177 181 197 212 219 225 227 193 190 198 205 190 198 218 204 195 192 194 196 197 198 198 200 203 199 205 213 211 204 215 225 222
203 197 199 202 204 208 212 214 212 194 175 176 182 190 198 206 210 214 216 202 188 203 202 207 198 213 204 197 194 195 194 194 200 203 205 200 201 205 207 205 204 210 215 207
204 197 199 200 203 208 209 211 209 193 174 187 188 186 193 194 200 209 209 190 193 205 213 212 206 212 203 203 200 197 199 198 198 201 197 197 199 198 198 201 208 210 198 194
207 200 206 205 204 206 209 210 204 193 183 186 192 182 185 187 200 210 189 196 204 217 225 222 217 216 212 213 196 202 202 198 195 192 190 194 193 193 199 203 207 205 205 211
200 200 200 206 206 203 208 210 202 198 191 188 190 186 191 186 198 208 199 199 205 214 213 215 220 213 222 223 206 200 204 196 187 180 191 193 190 198 204 207 212 220 219 217
191 197 198 201 202 198 203 208 203 199 196 193 190 194 191 198 193 201 205 210 214 208 201 204 213 215 218 217 218 224 220 209 189 185 195 196 196 202 208 207 214 219 224 226
184 195 196 201 204 196 198 203 196 196 194 192 195 201 203 202 204 206 210 214 218 216 209 213 214 216 221 203 196 211 219 209 196 195 202 203 204 209 215 217 219 219 225 227
180 189 192 199 204 197 199 200 197 190 191 194 196 203 208 209 211 216 220 223 220 213 210 212 217 224 225 228 214 214 225 218 205 208 210 213 210 214 217 221 221 224 233 234
181 187 198 194 199 195 197 205 201 194 191 198 201 203 207 212 212 220 230 234 235 222 212 206 204 211 218 213 210 208 211 214 223 222 218 220 226 223 217 222 226 231 236 239
173 195 201 202 200 201 205 202 203 200 197 199 202 203 205 211 209 215 223 229 235 234 230 222 207 204 207 207 206 207 210 212 221 225 222 223 218 222 230 231 223 233 236 242
170 191 196 205 209 205 206 210 206 202 207 206 204 205 207 209 210 213 219 226 231 235 233 228 230 229 216 209 210 215 220 222 224 225 225 227 234 237 234 234 235 233 236 240
173 195 201 209 209 211 212 224 219 216 211 215 210 207 210 211 210 209 220 223 225 227 231 225 228 232 229 224 225 232 231 222 223 229 233 234 233 234 237 238 239 240 241 247
190 201 206 213 214 217 214 214 206 211 206 206 211 209 212 214 215 209 217 220 223 224 225 227 227 226 222 228 233 231 230 233 234 231 232 237 241 244 246 246 247 249 252 257
204 208 215 218 219 225 218 225 226 208 206 204 206 210 211 216 218 218 220 224 224 229 227 227 226 225 223 225 230 233 236 237 236 240 241 242 243 246 250 251 251 252 255 257
234 222 220 221 226 230 232 237 230 214 207 211 211 213 209 216 219 222 227 229 227 228 228 222 221 220 224 236 247 247 243 240 238 239 242 244 245 247 250 251 252 253 254 256
227 225 235 241 231 231 236 238 239 231 214 211 214 216 215 216 219 222 226 228 232 231 229 226 223 222 232 244 251 251 248 246 247 248 249 248 248 250 252 254 256 258 259 261
203 209 229 240 241 241 239 242 241 238 244 247 222 220 226 226 224 222 226 230 234 237 237 234 230 230 235 248 250 250 248 244 248 250 250 252 252 251 251 253 255 257 259 261
263 241 236 244 265 260 249 243 245 243 237 236 243 243 234 228 230 229 229 232 234 237 239 240 243 243 245 242 242 247 247 249 250 249 250 255 255 257 257 256 257 257 258 258
322 273 248 255 269 255 243 250 243 245 241 243 238 231 232 232 239 227 238 240 236 242 244 243 245 246 246 248 245 249 250 248 251 254 255 254 254 255 256 258 260 260 262 264
292 303 312 315 322 285 257 270 265 239 240 240 241 241 242 242 250 245 250 242 238 242 244 242 242 244 246 247 248 248 238 240 247 252 257 260 259 257 257 258 259 260 262 262
303 301 304 318 320 322 337 281 273 247 239 237 236 239 245 249 251 248 247 249 253 244 240 244 245 246 244 246 247 242 242 254 265 263 260 257 257 260 261 260 258 260 261 261
315 314 306 306 320 312 312 322 271 249 239 235 237 242 245 250 250 246 244 244 246 250 248 244 246 246 245 244 242 242 253 262 262 259 258 259 258 255 255 257 259 259 259 260
316 313 310 308 301 303 305 294 297 271 250 253 274 250 247 257 249 248 250 245 245 245 243 242 241 240 241 240 243 254 259 259 258 257 261 260 260 261 256 257 257 257 259 263
304 305 305 299 305 296 285 282 279 280 278 266 269 262 254 254 253 245 242 242 244 249 245 239 239 242 246 252 254 256 259 260 259 260 260 260 261 260 258 259 258 259 259 260
297 289 295 293 287 281 282 283 282 260 257 258 257 264 262 257 226 218 221 248 243 239 242 243 245 245 245 248 253 255 255 255 257 258 256 252 234 238 241 249 258 264 262 266
294 290 286 282 286 285 279 276 275 278 279 255 222 232 245 248 250 244 242 247 229 226 227 220 227 235 243 248 252 255 255 253 251 251 251 237 248 254 251 257 266 265 265 265
290 289 284 278 273 274 277 276 269 269 270 265 273 254 229 219 225 236 243 241 236 219 206 205 198 216 225 229 237 243 241 239 233 237 245 248 246 254 258 257 264 265 261 258